sat.trackr.live / text

‹ back to catalog

STARLINK-31813

NORAD 60128 · 2024-118R

PAYLOAD ACTIVE UNKNOWN

§ Identity

Operator
Country
US
Launch date
2024-06-24
Launch site
AFWTR
Launch vehicle
Mass (kg)
RCS (m²)

Purposes: comms

External: N2YO · Heavens-Above · Gunter

§ Orbital elements

Epoch: 2026-05-25T01:29:08.177280Z

Period
94.01 min
Inclination
53.1611°
Eccentricity
0.0001179
Mean motion
15.31714651 rev/d
Perigee alt
469.9 km
Apogee alt
471.5 km
Semi-major
6,848.8 km
B*
8.1901e-5
RAAN
31.6754°
Arg perigee
89.0875°
Mean anomaly
271.0262°
Rev number
10,739

§ Raw data

STARLINK-318131 60128U 24118R   26145.06190020  .00002178  00000+0  81901-4 0  99992 60128  53.1611  31.6754 0001179  89.0875 271.0262 15.31714651107391

JSON: /api/v1/satellites/60128 · /tle

For live sub-satellite position, see the globe view (requires WebGL).

§ Visibility from observer

Set your observer location to see the next 7 days of passes ≥ 10°. The values pass through the URL so the page stays shareable.

No JS? Fill the form by hand. The geolocation button needs JavaScript.